Weather History for Soldotna, AK

Change the Weather History Date:

Monday, April 29, 2013

  Actual Average Record
Temperature  
Mean Temperature 30 °F -  
Max Temperature 41 °F 47 °F 68 °F (2005)
Min Temperature 19 °F 31 °F 17 °F (2006)
Degree Days  
Heating Degree Days 35    
Moisture  
Dew Point 18 °F    
Average Humidity 59    
Maximum Humidity 86    
Minimum Humidity 39    
Precipitation  
Precipitation 0.00 in - - ()
Sea Level Pressure  
Sea Level Pressure 30.14 in    
Wind  
Wind Speed 2 mph (West)    
Max Wind Speed 15 mph    
Max Gust Speed -    
Visibility 10 miles    
Events      
Averages and records for this station are not official NWS values.
T = Trace of Precipitation, MM = Missing Value Source: NWS Daily Summary

Daily Weather History Graph

Daily Weather History Graph

Search for Another Location

Airport:

Trip Planner

Search our weather history database for the weather conditions in past years. The results will help you decide how hot, cold, wet, or windy it might be!

Date:

Astronomy

Apr. 29, 2013 Rise Set
Actual Time 6:03 AM AKDT 10:00 PM AKDT
Civil Twilight 5:10 AM AKDT 10:55 PM AKDT
Nautical Twilight 3:46 AM AKDT 12:20 AM AKDT
Astronomical Twilight Sun does not rise Sun does not rise
Moon 2:09 AM AKDT (4/29) 9:07 AM AKDT (4/29)
Length of Visible Light 17h 44m
Length of Day
15h 57m
Waning Gibbous, 79% of the Moon is Illuminated
Apr 29
Waning Gibbous
May 2
Last Quarter
May 9
New
May 17
First Quarter
May 24
Full

Hourly Weather History & Observations

Time (AKDT) Temp. Windchill Dew Point Humidity Pressure Visibility Wind Dir Wind Speed Gust Speed Precip Events Conditions
12:16 AM 26.6 °F - 19.4 °F 74% 30.16 in 10.0 mi Calm Calm - N/A   Clear
12:36 AM 26.6 °F - 17.6 °F 69% 30.16 in 10.0 mi Calm Calm - N/A   Clear
12:56 AM 26.6 °F - 17.6 °F 69% 30.16 in 10.0 mi Calm Calm - N/A   Clear
1:16 AM 26.6 °F - 17.6 °F 69% 30.16 in 10.0 mi Calm Calm - N/A   Clear
1:36 AM 24.8 °F - 17.6 °F 74% 30.17 in 10.0 mi Calm Calm - N/A   Clear
1:56 AM 24.8 °F - 17.6 °F 74% 30.17 in 10.0 mi Calm Calm - N/A   Clear
2:16 AM 24.8 °F - 17.6 °F 74% 30.17 in 10.0 mi Calm Calm - N/A   Clear
2:36 AM 23.0 °F - 17.6 °F 80% 30.17 in 10.0 mi Calm Calm - N/A   Clear
2:56 AM 21.2 °F - 15.8 °F 80% 30.17 in 10.0 mi Calm Calm - N/A   Clear
3:16 AM 21.2 °F - 17.6 °F 86% 30.17 in 10.0 mi Calm Calm - N/A   Clear
3:36 AM 21.2 °F - 15.8 °F 80% 30.16 in 10.0 mi Calm Calm - N/A   Clear
3:56 AM 21.2 °F - 15.8 °F 80% 30.16 in 10.0 mi Calm Calm - N/A   Clear
4:16 AM 21.2 °F - 15.8 °F 80% 30.16 in 10.0 mi Calm Calm - N/A   Clear
4:36 AM 21.2 °F - 14.0 °F 74% 30.16 in 10.0 mi Calm Calm - N/A   Clear
4:56 AM 19.4 °F - 15.8 °F 86% 30.16 in 10.0 mi Calm Calm - N/A   Clear
5:16 AM 19.4 °F - 15.8 °F 86% 30.16 in 10.0 mi Calm Calm - N/A   Clear
5:36 AM 19.4 °F 14.3 °F 15.8 °F 86% 30.16 in 10.0 mi ENE 3.5 mph - N/A   Clear
5:56 AM 19.4 °F - 15.8 °F 86% 30.17 in 10.0 mi Calm Calm - N/A   Clear
6:16 AM 19.4 °F - 12.2 °F 74% 30.17 in 10.0 mi Calm Calm - N/A   Clear
6:36 AM 19.4 °F 14.3 °F 14.0 °F 80% 30.17 in 10.0 mi ENE 3.5 mph - N/A   Clear
6:56 AM 19.4 °F - 15.8 °F 86% 30.17 in 10.0 mi Calm Calm - N/A   Clear
7:16 AM 21.2 °F 16.4 °F 15.8 °F 80% 30.17 in 10.0 mi ENE 3.5 mph - N/A   Clear
7:36 AM 21.2 °F 16.4 °F 17.6 °F 86% 30.17 in 10.0 mi East 3.5 mph - N/A   Clear
7:56 AM 23.0 °F 18.4 °F 17.6 °F 80% 30.17 in 10.0 mi East 3.5 mph - N/A   Clear
8:16 AM 26.6 °F - 19.4 °F 74% 30.17 in 10.0 mi Calm Calm - N/A   Clear
8:36 AM 26.6 °F - 19.4 °F 74% 30.18 in 10.0 mi Calm Calm - N/A   Clear
8:56 AM 28.4 °F - 19.4 °F 69% 30.17 in 10.0 mi Calm Calm - N/A   Clear
9:16 AM 30.2 °F - 21.2 °F 69% 30.17 in 10.0 mi Calm Calm - N/A   Clear
9:36 AM 33.8 °F - 21.2 °F 60% 30.17 in 10.0 mi Calm Calm - N/A   Clear
9:56 AM 33.8 °F - 21.2 °F 60% 30.17 in 10.0 mi Calm Calm - N/A   Partly Cloudy
10:16 AM 35.6 °F - 19.4 °F 52% 30.17 in 10.0 mi Calm Calm - N/A   Partly Cloudy
10:36 AM 35.6 °F - 21.2 °F 56% 30.16 in 10.0 mi Calm Calm - N/A   Scattered Clouds
10:56 AM 37.4 °F - 19.4 °F 48% 30.16 in 10.0 mi Calm Calm - N/A   Clear
11:16 AM 37.4 °F - 19.4 °F 48% 30.16 in 10.0 mi Calm Calm - N/A   Clear
11:36 AM 39.2 °F - 19.4 °F 45% 30.16 in 10.0 mi Calm Calm - N/A   Clear
11:56 AM 39.2 °F - 19.4 °F 45% 30.15 in 10.0 mi Calm Calm - N/A   Clear
12:16 PM 39.2 °F - 17.6 °F 42% 30.15 in 10.0 mi Calm Calm - N/A   Clear
12:36 PM 39.2 °F 35.9 °F 19.4 °F 45% 30.14 in 10.0 mi WNW 4.6 mph - N/A   Clear
12:56 PM 41.0 °F 36.4 °F 19.4 °F 42% 30.14 in 10.0 mi WNW 6.9 mph - N/A   Partly Cloudy
1:16 PM 41.0 °F 39.0 °F 19.4 °F 42% 30.14 in 10.0 mi West 3.5 mph - N/A   Partly Cloudy
1:36 PM 41.0 °F 35.8 °F 19.4 °F 42% 30.14 in 10.0 mi West 8.1 mph - N/A   Clear
1:56 PM 41.0 °F 33.1 °F 19.4 °F 42% 30.14 in 10.0 mi West 15.0 mph - N/A   Clear
2:16 PM 39.2 °F 31.6 °F 19.4 °F 45% 30.14 in 10.0 mi West 12.7 mph - N/A   Clear
2:36 PM 39.2 °F 31.6 °F 19.4 °F 45% 30.14 in 10.0 mi West 12.7 mph - N/A   Mostly Cloudy
2:56 PM 39.2 °F 32.5 °F 17.6 °F 42% 30.14 in 10.0 mi West 10.4 mph - N/A   Overcast
3:16 PM 39.2 °F 32.5 °F 17.6 °F 42% 30.14 in 10.0 mi West 10.4 mph - N/A   Overcast
3:36 PM 39.2 °F 33.0 °F 17.6 °F 42% 30.14 in 10.0 mi West 9.2 mph - N/A   Overcast
3:56 PM 39.2 °F 32.5 °F 19.4 °F 45% 30.14 in 10.0 mi West 10.4 mph - N/A   Overcast
4:16 PM 37.4 °F 31.4 °F 21.2 °F 52% 30.14 in 10.0 mi West 8.1 mph - N/A   Overcast
4:36 PM 37.4 °F 32.1 °F 19.4 °F 48% 30.14 in 10.0 mi West 6.9 mph - N/A   Overcast
4:56 PM 37.4 °F 31.4 °F 17.6 °F 45% 30.14 in 10.0 mi West 8.1 mph - N/A   Overcast
5:16 PM 39.2 °F 33.6 °F 19.4 °F 45% 30.14 in 10.0 mi West 8.1 mph - N/A   Overcast
5:36 PM 39.2 °F 33.6 °F 17.6 °F 42% 30.14 in 10.0 mi West 8.1 mph - N/A   Overcast
5:56 PM 39.2 °F 34.2 °F 17.6 °F 42% 30.14 in 10.0 mi West 6.9 mph - N/A   Mostly Cloudy
6:16 PM 39.2 °F 34.2 °F 17.6 °F 42% 30.13 in 10.0 mi West 6.9 mph - N/A   Mostly Cloudy
6:36 PM 39.2 °F 35.9 °F 17.6 °F 42% 30.12 in 10.0 mi West 4.6 mph - N/A   Mostly Cloudy
6:56 PM 39.2 °F 37.0 °F 15.8 °F 39% 30.12 in 10.0 mi West 3.5 mph - N/A   Scattered Clouds
7:16 PM 39.2 °F 35.9 °F 15.8 °F 39% 30.12 in 10.0 mi WSW 4.6 mph - N/A   Partly Cloudy
7:36 PM 39.2 °F 35.9 °F 15.8 °F 39% 30.11 in 10.0 mi WSW 4.6 mph - N/A   Clear
7:56 PM 39.2 °F 35.0 °F 15.8 °F 39% 30.11 in 10.0 mi West 5.8 mph - N/A   Partly Cloudy
8:16 PM 39.2 °F 35.9 °F 15.8 °F 39% 30.10 in 10.0 mi WSW 4.6 mph - N/A   Clear
8:36 PM 39.2 °F 34.2 °F 15.8 °F 39% 30.10 in 10.0 mi SW 6.9 mph - N/A   Clear
8:56 PM 39.2 °F 35.0 °F 15.8 °F 39% 30.10 in 10.0 mi WSW 5.8 mph - N/A   Clear
9:16 PM 37.4 °F 33.8 °F 15.8 °F 41% 30.10 in 10.0 mi WSW 4.6 mph - N/A   Clear
9:36 PM 37.4 °F 32.8 °F 17.6 °F 45% 30.10 in 10.0 mi West 5.8 mph - N/A   Clear
9:56 PM 35.6 °F 31.7 °F 17.6 °F 48% 30.10 in 10.0 mi WSW 4.6 mph - N/A   Clear
10:16 PM 33.8 °F - 17.6 °F 52% 30.10 in 10.0 mi Calm Calm - N/A   Clear
10:36 PM 30.2 °F - 17.6 °F 60% 30.09 in 10.0 mi Calm Calm - N/A   Clear
10:56 PM 30.2 °F - 19.4 °F 64% 30.09 in 10.0 mi Calm Calm - N/A   Clear
11:16 PM 28.4 °F - 17.6 °F 64% 30.09 in 10.0 mi Calm Calm - N/A   Clear
11:36 PM 28.4 °F - 17.6 °F 64% 30.09 in 10.0 mi Calm Calm - N/A   Clear
11:56 PM 28.4 °F - 17.6 °F 64% 30.09 in 10.0 mi Calm Calm - N/A   Clear